Location: Winthrop
(48.4780°N, 120.1850°W)
Time: 17:23:47
(UTC-07:00)

Explorer 7 - Pass Details

Date: 29 January 2023
Orbit: 478 x 657 km, 50.3° (Epoch: 30 March)

Event Time Altitude Azimuth Distance (km) Brightness Sun altitude
Rises 16:08:44 0° 270° (W) 2,817 11.5 5.7°
Reaches altitude 10° 16:10:59 10° 272° (W) 1,946 10.6 5.4°
Maximum altitude 16:15:27 70° 357° (N) 669 7.3 4.8°
Drops below altitude 10° 16:20:10 10° 81° (E) 2,044 9.2 4.1°
Sets 16:22:34 0° 84° (E) 2,972 10.0 3.8°
